User: anonymous   Login
Location: Arrakis Observatory
(44.1122°N, 95.7153°W)
Time: 23:14:21
(UTC-05:00)
Language:

SL-8 R/B - Orbit

View from above orbital plane
View from above orbital plane
View from above satellite
View from above satellite

Ground track
Ground track

The orbit data is extracted from the following two-line orbital elements,

1 32751U 08014B   14297.78674465  .00320158  39741-4  11294-2 0   190
2 32751 098.1424 271.5212 0010358 081.9017 007.9480 15.88999499368096
Epoch (UTC): 24 October 2014 18:52:54
Eccentricity: 0.0010358
inclination: 98.1424°
perigee height: 298 km
apogee height: 312 km
right ascension of ascending node: 271.5212°
argument of perigee: 81.9017°
revolutions per day: 15.88999499
mean anomaly at epoch: 7.9480°
orbit number at epoch: 36809

The dashed part of the orbit path shows where the satellite is in the earth's shadow,  

DLR